����������;��������(kVARh)
2017-09-18 00:00;2,55
2017-09-18 00:15;4,35
2017-09-18 00:30;5,35
2017-09-18 00:45;10,95
2017-09-18 01:00;16,85
2017-09-18 01:15;15,9
2017-09-18 01:30;6,95
2017-09-18 01:45;6,95
2017-09-18 02:00;6,55
2017-09-18 02:15;8,9
2017-09-18 02:30;7,85
2017-09-18 02:45;7,95
2017-09-18 03:00;7,95
2017-09-18 03:15;8,65
2017-09-18 03:30;7,9
2017-09-18 03:45;7,05
2017-09-18 04:00;6,7
2017-09-18 04:15;9,25
2017-09-18 04:30;8,1
2017-09-18 04:45;7,55
2017-09-18 05:00;7,85
2017-09-18 05:15;9
2017-09-18 05:30;7,45
2017-09-18 05:45;9,35
2017-09-18 06:00;5,15
2017-09-18 06:15;7,55
2017-09-18 06:30;7,75
2017-09-18 06:45;6,6
2017-09-18 07:00;5,2
2017-09-18 07:15;6,3
2017-09-18 07:30;40,15
2017-09-18 07:45;50,4
2017-09-18 08:00;51
2017-09-18 08:15;21,7
2017-09-18 08:30;41,75
2017-09-18 08:45;46,65
2017-09-18 09:00;52,25
2017-09-18 09:15;55,75
2017-09-18 09:30;53,1
2017-09-18 09:45;62,6
2017-09-18 10:00;73,95
2017-09-18 10:15;68
2017-09-18 10:30;78,55
2017-09-18 10:45;83,45
2017-09-18 11:00;81,95
2017-09-18 11:15;89,7
2017-09-18 11:30;83,75
2017-09-18 11:45;88,05
2017-09-18 12:00;83,05
2017-09-18 12:15;92,15
2017-09-18 12:30;86,35
2017-09-18 12:45;94,4
2017-09-18 13:00;85,75
2017-09-18 13:15;83
2017-09-18 13:30;91,2
2017-09-18 13:45;85,65
2017-09-18 14:00;86,65
2017-09-18 14:15;87,35
2017-09-18 14:30;84,45
2017-09-18 14:45;97,5
2017-09-18 15:00;86,25
2017-09-18 15:15;87,8
2017-09-18 15:30;86,4
2017-09-18 15:45;77,1
2017-09-18 16:00;86,1
2017-09-18 16:15;77,65
2017-09-18 16:30;78
2017-09-18 16:45;76,65
2017-09-18 17:00;67,9
2017-09-18 17:15;68,7
2017-09-18 17:30;67,15
2017-09-18 17:45;69,45
2017-09-18 18:00;63,3
2017-09-18 18:15;55,5
2017-09-18 18:30;55,45
2017-09-18 18:45;45,9
2017-09-18 19:00;44
2017-09-18 19:15;40,85
2017-09-18 19:30;41,7
2017-09-18 19:45;38,3
2017-09-18 20:00;34,1
2017-09-18 20:15;32,5
2017-09-18 20:30;32,2
2017-09-18 20:45;34,3
2017-09-18 21:00;34,05
2017-09-18 21:15;33,4
2017-09-18 21:30;32,65
2017-09-18 21:45;28,3
2017-09-18 22:00;25,3
2017-09-18 22:15;26,55
2017-09-18 22:30;28,9
2017-09-18 22:45;20,2
2017-09-18 23:00;17,9
2017-09-18 23:15;11,25
2017-09-18 23:30;10,75
2017-09-18 23:45;11,05
2017-09-19 00:00;10,7
2017-09-19 00:15;15,15
2017-09-19 00:30;14,85
2017-09-19 00:45;10,7
2017-09-19 01:00;15,1
2017-09-19 01:15;11,3
2017-09-19 01:30;13,8
2017-09-19 01:45;2,95
2017-09-19 02:00;3,35
2017-09-19 02:15;3,25
2017-09-19 02:30;3,85
2017-09-19 02:45;4,4
2017-09-19 03:00;3,1
2017-09-19 03:15;4,7
2017-09-19 03:30;2,9
2017-09-19 03:45;4,7
2017-09-19 04:00;2,8
2017-09-19 04:15;4,85
2017-09-19 04:30;2,7
2017-09-19 04:45;4,05
2017-09-19 05:00;4,45
2017-09-19 05:15;5,1
2017-09-19 05:30;4,2
2017-09-19 05:45;5,2
2017-09-19 06:00;4,75
2017-09-19 06:15;5,75
2017-09-19 06:30;8
2017-09-19 06:45;18,95
2017-09-19 07:00;25,7
2017-09-19 07:15;21,6
2017-09-19 07:30;52
2017-09-19 07:45;52,5
2017-09-19 08:00;37,2
2017-09-19 08:15;27,3
2017-09-19 08:30;23,45
2017-09-19 08:45;43,25
2017-09-19 09:00;58,6
2017-09-19 09:15;62,25
2017-09-19 09:30;78,55
2017-09-19 09:45;73
2017-09-19 10:00;62,1
2017-09-19 10:15;68
2017-09-19 10:30;69,75
2017-09-19 10:45;67,85
2017-09-19 11:00;74,75
2017-09-19 11:15;79,95
2017-09-19 11:30;80,95
2017-09-19 11:45;79,65
2017-09-19 12:00;77,8
2017-09-19 12:15;81,6
2017-09-19 12:30;79,35
2017-09-19 12:45;83,5
2017-09-19 13:00;82,95
2017-09-19 13:15;105,7
2017-09-19 13:30;125,15
2017-09-19 13:45;123,3
2017-09-19 14:00;121,35
2017-09-19 14:15;111,95
2017-09-19 14:30;103,7
2017-09-19 14:45;101,7
2017-09-19 15:00;92,5
2017-09-19 15:15;89,85
2017-09-19 15:30;83,2
2017-09-19 15:45;81,5
2017-09-19 16:00;78,6
2017-09-19 16:15;69,6
2017-09-19 16:30;69,05
2017-09-19 16:45;67,7
2017-09-19 17:00;65
2017-09-19 17:15;64,1
2017-09-19 17:30;61,95
2017-09-19 17:45;62,05
2017-09-19 18:00;62,55
2017-09-19 18:15;57
2017-09-19 18:30;52
2017-09-19 18:45;51,8
2017-09-19 19:00;46,75
2017-09-19 19:15;45,8
2017-09-19 19:30;45,5
2017-09-19 19:45;44,35
2017-09-19 20:00;41,95
2017-09-19 20:15;38,15
2017-09-19 20:30;36
2017-09-19 20:45;35,6
2017-09-19 21:00;33,6
2017-09-19 21:15;35,75
2017-09-19 21:30;34,4
2017-09-19 21:45;32,7
2017-09-19 22:00;27,05
2017-09-19 22:15;24,1
2017-09-19 22:30;17,85
2017-09-19 22:45;14,7
2017-09-19 23:00;16,35
2017-09-19 23:15;13,65
2017-09-19 23:30;7,55
2017-09-19 23:45;8,8
2017-09-20 00:00;8,8
2017-09-20 00:15;7,75
2017-09-20 00:30;6,2
2017-09-20 00:45;9,35
2017-09-20 01:00;8,95
2017-09-20 01:15;10,85
2017-09-20 01:30;8,65
2017-09-20 01:45;10,15
2017-09-20 02:00;12,2
2017-09-20 02:15;11,15
2017-09-20 02:30;12
2017-09-20 02:45;10,2
2017-09-20 03:00;11,35
2017-09-20 03:15;11,9
2017-09-20 03:30;11,55
2017-09-20 03:45;12,65
2017-09-20 04:00;9,4
2017-09-20 04:15;12,25
2017-09-20 04:30;9,85
2017-09-20 04:45;12,2
2017-09-20 05:00;10,35
2017-09-20 05:15;11,2
2017-09-20 05:30;12,15
2017-09-20 05:45;9,9
2017-09-20 06:00;9,65
2017-09-20 06:15;18,15
2017-09-20 06:30;24,05
2017-09-20 06:45;27,5
2017-09-20 07:00;23,4
2017-09-20 07:15;22,25
2017-09-20 07:30;28,2
2017-09-20 07:45;33,8
2017-09-20 08:00;37,7
2017-09-20 08:15;34,1
2017-09-20 08:30;37,9
2017-09-20 08:45;41,15
2017-09-20 09:00;50
2017-09-20 09:15;50,45
2017-09-20 09:30;54,6
2017-09-20 09:45;55
2017-09-20 10:00;72,7
2017-09-20 10:15;93,2
2017-09-20 10:30;92,05
2017-09-20 10:45;92,6
2017-09-20 11:00;87,95
2017-09-20 11:15;71,8
2017-09-20 11:30;80,25
2017-09-20 11:45;69,9
2017-09-20 12:00;73,95
2017-09-20 12:15;76,15
2017-09-20 12:30;78,8
2017-09-20 12:45;76,75
2017-09-20 13:00;102,4
2017-09-20 13:15;109,5
2017-09-20 13:30;95,5
2017-09-20 13:45;78,8
2017-09-20 14:00;82,3
2017-09-20 14:15;68,6
2017-09-20 14:30;69,7
2017-09-20 14:45;70,5
2017-09-20 15:00;85,85
2017-09-20 15:15;102,3
2017-09-20 15:30;94,6
2017-09-20 15:45;72,1
2017-09-20 16:00;80
2017-09-20 16:15;80,65
2017-09-20 16:30;78,85
2017-09-20 16:45;80,05
2017-09-20 17:00;77,95
2017-09-20 17:15;77,15
2017-09-20 17:30;77
2017-09-20 17:45;76,85
2017-09-20 18:00;76,55
2017-09-20 18:15;74,2
2017-09-20 18:30;62,75
2017-09-20 18:45;48,75
2017-09-20 19:00;49,2
2017-09-20 19:15;46,05
2017-09-20 19:30;43,5
2017-09-20 19:45;41,9
2017-09-20 20:00;32,25
2017-09-20 20:15;26,85
2017-09-20 20:30;25,1
2017-09-20 20:45;23,35
2017-09-20 21:00;25
2017-09-20 21:15;26,6
2017-09-20 21:30;26
2017-09-20 21:45;23,05
2017-09-20 22:00;12,85
2017-09-20 22:15;12,7
2017-09-20 22:30;12,5
2017-09-20 22:45;12,3
2017-09-20 23:00;14,4
2017-09-20 23:15;5,35
2017-09-20 23:30;5,65
2017-09-20 23:45;5,9
2017-09-21 00:00;6,55
2017-09-21 00:15;5,1
2017-09-21 00:30;6,55
2017-09-21 00:45;7,3
2017-09-21 01:00;8,85
2017-09-21 01:15;8
2017-09-21 01:30;8,95
2017-09-21 01:45;8,65
2017-09-21 02:00;9
2017-09-21 02:15;10
2017-09-21 02:30;8,3
2017-09-21 02:45;10,25
2017-09-21 03:00;10,7
2017-09-21 03:15;10,15
2017-09-21 03:30;10,15
2017-09-21 03:45;10,5
2017-09-21 04:00;9,7
2017-09-21 04:15;9,8
2017-09-21 04:30;10,65
2017-09-21 04:45;8,2
2017-09-21 05:00;10,9
2017-09-21 05:15;9,9
2017-09-21 05:30;9,4
2017-09-21 05:45;6,2
2017-09-21 06:00;7,85
2017-09-21 06:15;7,9
2017-09-21 06:30;12,65
2017-09-21 06:45;18,9
2017-09-21 07:00;22,35
2017-09-21 07:15;20,4
2017-09-21 07:30;27,3
2017-09-21 07:45;28,3
2017-09-21 08:00;27,65
2017-09-21 08:15;28,2
2017-09-21 08:30;28,15
2017-09-21 08:45;33,95
2017-09-21 09:00;44,5
2017-09-21 09:15;43,75
2017-09-21 09:30;52,8
2017-09-21 09:45;84,15
2017-09-21 10:00;84,95
2017-09-21 10:15;75,2
2017-09-21 10:30;68,2
2017-09-21 10:45;70,55
2017-09-21 11:00;75,05
2017-09-21 11:15;71,5
2017-09-21 11:30;69,75
2017-09-21 11:45;76,55
2017-09-21 12:00;74,2
2017-09-21 12:15;73
2017-09-21 12:30;83,85
2017-09-21 12:45;75,95
2017-09-21 13:00;71,15
2017-09-21 13:15;82,65
2017-09-21 13:30;85,85
2017-09-21 13:45;83,75
2017-09-21 14:00;84,45
2017-09-21 14:15;83,2
2017-09-21 14:30;82,3
2017-09-21 14:45;84,45
2017-09-21 15:00;83,2
2017-09-21 15:15;82,6
2017-09-21 15:30;80,7
2017-09-21 15:45;78,55
2017-09-21 16:00;82
2017-09-21 16:15;83,05
2017-09-21 16:30;81,45
2017-09-21 16:45;81,25
2017-09-21 17:00;78,1
2017-09-21 17:15;63,25
2017-09-21 17:30;60,45
2017-09-21 17:45;57,45
2017-09-21 18:00;58,45
2017-09-21 18:15;53,3
2017-09-21 18:30;50,05
2017-09-21 18:45;47,3
2017-09-21 19:00;48,5
2017-09-21 19:15;42,8
2017-09-21 19:30;39,55
2017-09-21 19:45;34,25
2017-09-21 20:00;34,7
2017-09-21 20:15;35,15
2017-09-21 20:30;34,5
2017-09-21 20:45;33,95
2017-09-21 21:00;35,4
2017-09-21 21:15;35
2017-09-21 21:30;37,3
2017-09-21 21:45;37,25
2017-09-21 22:00;24,1
2017-09-21 22:15;29,85
2017-09-21 22:30;28,1
2017-09-21 22:45;21,95
2017-09-21 23:00;19,95
2017-09-21 23:15;15,75
2017-09-21 23:30;16,4
2017-09-21 23:45;9,9
2017-09-22 00:00;5
2017-09-22 00:15;6
2017-09-22 00:30;6,2
2017-09-22 00:45;8,55
2017-09-22 01:00;8,3
2017-09-22 01:15;9,25
2017-09-22 01:30;8,95
2017-09-22 01:45;9,2
2017-09-22 02:00;9,45
2017-09-22 02:15;11,15
2017-09-22 02:30;9,8
2017-09-22 02:45;10
2017-09-22 03:00;12
2017-09-22 03:15;11,15
2017-09-22 03:30;10,35
2017-09-22 03:45;10
2017-09-22 04:00;12,6
2017-09-22 04:15;12,6
2017-09-22 04:30;12,2
2017-09-22 04:45;11,95
2017-09-22 05:00;13,6
2017-09-22 05:15;11,6
2017-09-22 05:30;12,15
2017-09-22 05:45;12,45
2017-09-22 06:00;11,8
2017-09-22 06:15;12,3
2017-09-22 06:30;10,95
2017-09-22 06:45;20,9
2017-09-22 07:00;27,1
2017-09-22 07:15;25
2017-09-22 07:30;51,75
2017-09-22 07:45;54,7
2017-09-22 08:00;38,95
2017-09-22 08:15;37,5
2017-09-22 08:30;35,95
2017-09-22 08:45;46,25
2017-09-22 09:00;43,65
2017-09-22 09:15;44,2
2017-09-22 09:30;51,6
2017-09-22 09:45;50,75
2017-09-22 10:00;47
2017-09-22 10:15;50,65
2017-09-22 10:30;58,8
2017-09-22 10:45;57,55
2017-09-22 11:00;62,55
2017-09-22 11:15;67,1
2017-09-22 11:30;64,95
2017-09-22 11:45;64,1
2017-09-22 12:00;70,75
2017-09-22 12:15;74,25
2017-09-22 12:30;70,15
2017-09-22 12:45;74,85
2017-09-22 13:00;75,25
2017-09-22 13:15;71,9
2017-09-22 13:30;69,85
2017-09-22 13:45;78,7
2017-09-22 14:00;76,55
2017-09-22 14:15;73,75
2017-09-22 14:30;76,75
2017-09-22 14:45;76,2
2017-09-22 15:00;75,8
2017-09-22 15:15;68,45
2017-09-22 15:30;73
2017-09-22 15:45;77,7
2017-09-22 16:00;71,25
2017-09-22 16:15;84,15
2017-09-22 16:30;82,05
2017-09-22 16:45;61,6
2017-09-22 17:00;66,6
2017-09-22 17:15;61,7
2017-09-22 17:30;62,3
2017-09-22 17:45;59,95
2017-09-22 18:00;60,15
2017-09-22 18:15;59,75
2017-09-22 18:30;54,3
2017-09-22 18:45;39,35
2017-09-22 19:00;38,8
2017-09-22 19:15;35,75
2017-09-22 19:30;36,35
2017-09-22 19:45;33,4
2017-09-22 20:00;30,1
2017-09-22 20:15;26,6
2017-09-22 20:30;27,15
2017-09-22 20:45;28
2017-09-22 21:00;26,7
2017-09-22 21:15;26,9
2017-09-22 21:30;28
2017-09-22 21:45;28,5
2017-09-22 22:00;27,4
2017-09-22 22:15;25,65
2017-09-22 22:30;23,8
2017-09-22 22:45;22,05
2017-09-22 23:00;23,15
2017-09-22 23:15;21,1
2017-09-22 23:30;19,4
2017-09-22 23:45;22,15
2017-09-23 00:00;14,05
2017-09-23 00:15;11,1
2017-09-23 00:30;11,1
2017-09-23 00:45;12,3
2017-09-23 01:00;11,7
2017-09-23 01:15;12,9
2017-09-23 01:30;13,9
2017-09-23 01:45;13
2017-09-23 02:00;11,2
2017-09-23 02:15;4,1
2017-09-23 02:30;6
2017-09-23 02:45;4,5
2017-09-23 03:00;4,9
2017-09-23 03:15;6,55
2017-09-23 03:30;7,2
2017-09-23 03:45;7,05
2017-09-23 04:00;6,45
2017-09-23 04:15;6,5
2017-09-23 04:30;8,1
2017-09-23 04:45;7,85
2017-09-23 05:00;6,85
2017-09-23 05:15;5
2017-09-23 05:30;5,45
2017-09-23 05:45;7,3
2017-09-23 06:00;4,7
2017-09-23 06:15;4,7
2017-09-23 06:30;6,1
2017-09-23 06:45;4,9
2017-09-23 07:00;4,1
2017-09-23 07:15;3,7
2017-09-23 07:30;3,8
2017-09-23 07:45;3,05
2017-09-23 08:00;2,9
2017-09-23 08:15;2,25
2017-09-23 08:30;1,4
2017-09-23 08:45;1,1
2017-09-23 09:00;1
2017-09-23 09:15;1,05
2017-09-23 09:30;0,05
2017-09-23 09:45;2,75
2017-09-23 10:00;10,05
2017-09-23 10:15;10
2017-09-23 10:30;11,15
2017-09-23 10:45;9,05
2017-09-23 11:00;8,9
2017-09-23 11:15;9
2017-09-23 11:30;10,2
2017-09-23 11:45;8,2
2017-09-23 12:00;8,6
2017-09-23 12:15;11,9
2017-09-23 12:30;9,4
2017-09-23 12:45;11,2
2017-09-23 13:00;8,6
2017-09-23 13:15;7,55
2017-09-23 13:30;10,95
2017-09-23 13:45;9,5
2017-09-23 14:00;10,25
2017-09-23 14:15;12,3
2017-09-23 14:30;10,95
2017-09-23 14:45;10,5
2017-09-23 15:00;12,3
2017-09-23 15:15;14,4
2017-09-23 15:30;13,65
2017-09-23 15:45;14,1
2017-09-23 16:00;14,4
2017-09-23 16:15;14,55
2017-09-23 16:30;15,6
2017-09-23 16:45;16,9
2017-09-23 17:00;16,75
2017-09-23 17:15;15,8
2017-09-23 17:30;15,05
2017-09-23 17:45;17,1
2017-09-23 18:00;14,35
2017-09-23 18:15;14,35
2017-09-23 18:30;14,45
2017-09-23 18:45;11,75
2017-09-23 19:00;11,35
2017-09-23 19:15;11,9
2017-09-23 19:30;16,05
2017-09-23 19:45;12,5
2017-09-23 20:00;14,45
2017-09-23 20:15;14,6
2017-09-23 20:30;14,15
2017-09-23 20:45;13
2017-09-23 21:00;14,9
2017-09-23 21:15;15,4
2017-09-23 21:30;16
2017-09-23 21:45;15,9
2017-09-23 22:00;12,4
2017-09-23 22:15;15,3
2017-09-23 22:30;13,3
2017-09-23 22:45;13,1
2017-09-23 23:00;10,25
2017-09-23 23:15;2,7
2017-09-23 23:30;3,35
2017-09-23 23:45;4
2017-09-24 00:00;1,9
2017-09-24 00:15;2,4
2017-09-24 00:30;2,1
2017-09-24 00:45;2
2017-09-24 01:00;1,65
2017-09-24 01:15;1,85
2017-09-24 01:30;3,2
2017-09-24 01:45;3,45
2017-09-24 02:00;3,9
2017-09-24 02:15;4,5
2017-09-24 02:30;3,95
2017-09-24 02:45;4,2
2017-09-24 03:00;3
2017-09-24 03:15;2,9
2017-09-24 03:30;2,35
2017-09-24 03:45;3,1
2017-09-24 04:00;2,95
2017-09-24 04:15;4,6
2017-09-24 04:30;5,3
2017-09-24 04:45;4,15
2017-09-24 05:00;3,9
2017-09-24 05:15;3,45
2017-09-24 05:30;3,35
2017-09-24 05:45;4,5
2017-09-24 06:00;5,25
2017-09-24 06:15;5,55
2017-09-24 06:30;5,1
2017-09-24 06:45;3,85
2017-09-24 07:00;3,95
2017-09-24 07:15;4,8
2017-09-24 07:30;4,35
2017-09-24 07:45;4
2017-09-24 08:00;4,35
2017-09-24 08:15;4,5
2017-09-24 08:30;4,4
2017-09-24 08:45;4,45
2017-09-24 09:00;3,2
2017-09-24 09:15;5,7
2017-09-24 09:30;5,95
2017-09-24 09:45;4,95
2017-09-24 10:00;6,25
2017-09-24 10:15;6,05
2017-09-24 10:30;4,6
2017-09-24 10:45;6,55
2017-09-24 11:00;8,65
2017-09-24 11:15;8,3
2017-09-24 11:30;9,85
2017-09-24 11:45;8,55
2017-09-24 12:00;7,3
2017-09-24 12:15;7,9
2017-09-24 12:30;9,05
2017-09-24 12:45;6,85
2017-09-24 13:00;6,65
2017-09-24 13:15;7,4
2017-09-24 13:30;8,55
2017-09-24 13:45;8,3
2017-09-24 14:00;9,1
2017-09-24 14:15;9,15
2017-09-24 14:30;11,05
2017-09-24 14:45;10,75
2017-09-24 15:00;10,8
2017-09-24 15:15;11,2
2017-09-24 15:30;14,05
2017-09-24 15:45;12,55
2017-09-24 16:00;11,6
2017-09-24 16:15;12,65
2017-09-24 16:30;14,8
2017-09-24 16:45;14,8
2017-09-24 17:00;15,1
2017-09-24 17:15;16,15
2017-09-24 17:30;15,05
2017-09-24 17:45;14,05
2017-09-24 18:00;15,2
2017-09-24 18:15;14,1
2017-09-24 18:30;13,55
2017-09-24 18:45;14,9
2017-09-24 19:00;12,4
2017-09-24 19:15;11,55
2017-09-24 19:30;9,65
2017-09-24 19:45;7,15
2017-09-24 20:00;7,45
2017-09-24 20:15;5,2
2017-09-24 20:30;5,7
2017-09-24 20:45;5,25
2017-09-24 21:00;6,2
2017-09-24 21:15;6,9
2017-09-24 21:30;7,55
2017-09-24 21:45;7,1
2017-09-24 22:00;5,9
2017-09-24 22:15;7,5
2017-09-24 22:30;8,25
2017-09-24 22:45;3,75
2017-09-24 23:00;4,95
2017-09-24 23:15;2,3
2017-09-24 23:30;2,05
2017-09-24 23:45;3,05

